Location: Munkebjergskolens Observatorium
(55.3864°N, 10.3987°E)
Time: 22:11:56
(UTC+01:00)

DELTA 1 DEB - Pass Details

Date: 10 December 2023
Orbit: 783 x 826 km, 98.9° (Epoch: 04 March)

Event Time Altitude Azimuth Distance (km) Brightness Sun altitude
Rises 19:58:53 0° 231° (SW) 3,312 ? -33.9°
Maximum altitude 20:04:35 10° 281° (W) 2,397 ? -34.7°
Drops below altitude 10° 20:05:07 10° 286° (WNW) 2,409 ? -34.8°
Sets 20:10:24 0° 330° (NNW) 3,364 ? -35.5°
